Air Resources Laboratory banner image
Air Resources Laboratory web site National Oceanic and Atmospheric Administration (NOAA)

or roundup


Office: PQR

ASUS46 KPQR 110710
RWROR

OREGON REGIONAL WEATHER ROUNDUP
NATIONAL WEATHER SERVICE PORTLAND OR
1200 AM PDT THU AUG 11 2022

NOTE: "FAIR" INDICATES FEW OR NO CLOUDS BELOW 12,000 FEET WITH
NO SIGNIFICANT WEATHER AND/OR OBSTRUCTIONS TO VISIBILITY.

ORZ001>013-110800-
NORTHWEST OREGON


CITY           SKY/WX    TMP DP  RH WIND       PRES   REMARKS
ASTORIA        CLEAR     57  53  86 SE3       30.13S
TILLAMOOK      CLEAR     54  52  94 SE3       30.15S
NEWPORT        MOCLDY    52  50  93 E3        30.16S
FLORENCE       MOCLDY    57  57 100 CALM      30.14S
PORTLAND       CLEAR     67  59  75 NW6       30.12S
VANCOUVER WA   CLEAR     66  57  72 CALM      30.12S
SCAPPOOSE      CLEAR     60  57  89 CALM      30.11S
HILLSBORO      CLEAR     60  55  83 CALM      30.12S
AURORA         CLEAR     63  56  78 CALM      30.13R
MCMINNVILLE    CLEAR     61  54  77 NW5       30.12S
SALEM          CLEAR     62  53  72 CALM      30.11S
CORVALLIS      CLEAR     61  53  75 W7        30.13S
EUGENE         CLEAR     62  53  72 CALM      30.13S
CRESWELL       PTCLDY    61  54  77 CALM      30.13S
$$

ORZ021-028-110800-
SOUTHWEST OREGON


CITY           SKY/WX    TMP DP  RH WIND       PRES   REMARKS
NORTH BEND     CLEAR     58  58 100 CALM      30.15F
BROOKINGS      CLEAR     57  56  96 CALM      30.14S
ROSEBURG       CLEAR     65  53  65 N3        30.12S
GRANTS PASS    FAIR      64  48  55 CALM      30.14S
MEDFORD        CLEAR     71  50  47 W6        30.09R
$$

ORZ014>016-041-110800-
COLUMBIA GORGE


CITY           SKY/WX    TMP DP  RH WIND       PRES   REMARKS
TROUTDALE      CLEAR     63  57  81 E3        30.12S
HOOD RIVER     PTCLDY    63  52  67 CALM      30.09F
THE DALLES     CLEAR     73  52  47 W21G37    30.04S
$$

ORZ029>031-041-044-049-050-061>064-502-503-505>511-110800-
EASTERN OREGON


CITY           SKY/WX    TMP DP  RH WIND       PRES   REMARKS
MADRAS         CLEAR     55  48  76 NW7       30.14S
REDMOND        CLEAR     64  50  60 W6        30.13S
BEND           CLEAR     61  50  67 NW5       30.16S
PRINEVILLE     PTCLDY    61  50  67 CALM      30.14R
KLAMATH FALLS  CLEAR     51  43  74 SE3       30.18R
LAKEVIEW       CLEAR     51  30  44 SE8       30.23S
HERMISTON      CLEAR     73  50  44 SW16G26   30.00R
PENDLETON      CLEAR     74  46  36 SW8       30.05R
JOHN DAY       CLEAR     71  49  46 W16       30.13R
MEACHAM        PTCLDY    60  59  96 CALM      30.15R
LA GRANDE      CLEAR     75  57  53 W8        30.06R
BAKER CITY     CLEAR     68  56  65 CALM      30.10R
BURNS          CLEAR     59  51  75 CALM      30.16S
ROME             N/A     65  57  75 SE5       30.13S
ONTARIO          N/A    N/A N/A N/A MISG      30.04R
$$


OTHER REGIONAL REPORTS

CITY           SKY/WX    TMP DP  RH WIND       PRES   REMARKS
SEATTLE        MOCLDY    62  56  80 SW3       30.15F
SPOKANE        CLOUDY    79  59  50 S3        30.05R
VANCOUVER BC   CLOUDY    68  61  77 E14       30.12R
PRINCE GEORGE  MOCLDY    61  54  77 VRB2      29.97R
DAWSON CREEK   CLEAR     57  50  77 CALM      29.93S
WHITEHORSE     MOCLDY    46  46 100 SW3       30.15S
BOISE          PTCLDY    75  56  51 CALM      30.09R
REDDING        CLEAR     74  40  29 N3        30.00S
SAN FRANCISCO  PTCLDY    64  59  83 W15       30.07S

$$





Office: LKN ASUS65 KLKN 110017 RTPLKN Regional Temperature And Precipitation Table...Late Afternoon National Weather Service Elko NV 517 PM PDT Wed Aug 10 2022 ***Automated Airport Stations*** Values represent lows over the last 18 hours... Values reflect the previous 18 hours and precipitation over the last 24 hours...ending at 4 PM PST/5 PM PDT today. .BR LKN 0810 P DH16/TAIRZS/TAIRZI/PPDRZZ/SFDRZZ/SDIRZZ : :ID Station Elev / Max / Min / Pcpn / :.................................................................... : EKO : Elko ASOS 5074 : 74 / 58 / 0.17 / ELY : Ely ASOS 6262 : 75 / 59 / 0.54 / P68 : Eureka ASOS 5936 : 75 / 60 / 0.27 / TPH : Tonopah ASOS 5395 : 88 / 65 / 0.01 / ENV : Wendover AWOS 4236 : 87 / 73 / T / WMC : Winnemucca ASOS 4314 : 91 / 63 / 0.16 / .END ***Manual synoptic reporting stations in north and central Nevada*** Values reflect the previous 24 hours ending at 4 PM PST/5 PM PDT *Snow stations may only report during periods of snowfall* .BR LKN 0810 P DH16/TAIRZX/TAIRZN/PPDRZZ/SFDRZZ/SDIRZZ : Snow Snow :ID Station Elev Max / Min / Pcpn / Fall / Dpth :.................................................................... : ZLKN2 : Elko NWS Office 5235 : 84 / 62 / 0.11 / 0.0 / 0 ZELN2 : Ely Snow 6487 : M / M / M / 0.0 / 0 ZWIN2 : Winnemucca Snow 4355 : M / M / M / 0.0 / 0 .END ***Cooperative stations in north and central Nevada*** Values reflect the previous 24 hours Report time as indicated .BR LKN 0810 P DH16/TAIRZX/TAIRZN/PPDRZZ/SFDRZZ/SDIRZZ : Snow Snow :ID Station Elev Time / Max / Min / Pcpn / Fall / Dpth :.................................................................... : ASTN2 : Austin #2 6780 5 PM: M / M / M / M / M B23 : Battle MT. 4SE 4505 5 PM: M / M / M / M / M BOWN2 : Beowawe 4700 4 PM: M / M / M / M / M PIVN2 : Pine Valley 5166 6 PM: M / M / M / M / M AWH : Wild Horse Res. 6239 6 PM: M / M / M / M / M .END M = Missing data T = Trace amounts ASOS = Automated Surface Observing System AWOS = Automated Weather Observation System NWS = National Weather Service These data are preliminary and have not undergone final quality control (QC) by NCEI. Therefore, these data are subject to revision. Final and certified data can be accessed at the National Centers For Environmental Information (NCEI) - www.ncei.noaa.gov $$